This demonstration page uses our WeatherBlox Daily Observations layout. Learn more.

Left ArrowRight Arrow

34.74481, -87.66753

Hourly Observations for May 8, 2020

Temp ( °F °C ) Dew Point ( °F °C ) Humidity (%) Winds ( mph kmh ) Pressure ( in mb ) Visibility ( mi km ) Precip ( " mm )
12:53 am 00:53 Cloudy with Light Rain 57 13.9 49 9.4 74 74 Calm 30.07 1018 10 16 0.00 0.00
1:53 am 01:53 Cloudy with Light Rain 56 13.3 50 10 81 81 undefined N/A 30.02 1017 10 16 0.01 0.25
2:53 am 02:53 Mostly Cloudy 55 12.8 50 10 83 83 E 6 9 29.98 1015 10 16 0.01 0.25
3:53 am 03:53 Cloudy 56 13.3 51 10.6 84 84 E 7 11 29.95 1014 10 16 0.00 0.00
4:53 am 04:53 Mostly Cloudy 56 13.3 51 10.6 84 84 ESE 6 9 29.93 1014 10 16 0.00 0.00
5:53 am 05:53 Cloudy 57 13.9 49 9.4 74 74 SE 9 15 29.90 1012 10 16 0.00 0.00
6:53 am 06:53 Cloudy 57 13.9 47 8.3 69 69 SSE 9 15 29.90 1012 10 16 0.00 0.00
7:53 am 07:53 Cloudy with Rain 55 12.8 49 9.4 80 80 NNW 8 13 29.99 1016 7 11 0.06 1.52
8:03 am 08:03 Cloudy with Thunderstorms 55 12.8 49 9.4 80 80 NW 7 11 30.02 1017 7 11 0.03 0.76
8:22 am 08:22 Cloudy with Rain 55 12.8 50 10 83 83 Calm 30.00 1016 5 8 0.07 1.78
8:32 am 08:32 Cloudy with Nearby Thunderstorms 54 12.2 51 10.6 90 90 Calm 30.00 1016 5 8 0.12 3.05
8:53 am 08:53 Cloudy with Heavy Rain 54 12.2 51 10.6 90 90 Calm 29.99 1016 4 6 0.22 5.59
9:05 am 09:05 Cloudy with Nearby Thunderstorms 54 12.2 51 10.6 90 90 SSE 5 7 30.00 1016 4 6 0.06 1.52
9:20 am 09:20 Cloudy with Heavy Rain 54 12.2 51 10.6 90 90 SSE 8 13 30.01 1016 3 5 0.15 3.81
9:53 am 09:53 Cloudy with Light Rain 54 12.2 51 10.6 90 90 S 9 15 29.96 1015 10 16 0.28 7.11
10:53 am 10:53 Cloudy with Light Rain 56 13.3 52 11.1 87 87 S 12 19 29.86 1011 10 16 0.05 1.27
11:53 am 11:53 Cloudy with Light Rain 58 14.4 53 11.7 84 84 S 20 31 29.85 1011 10 16 0.02 0.51
12:50 pm 12:50 Cloudy 59 15 55 13 88 88 S 9 15 29.85 1011 10 16 0.06 1.52
12:53 pm 12:53 Cloudy 59 15 55 12.8 87 87 S 12 19 29.84 1010 10 16 0.06 1.52
1:14 pm 13:14 Cloudy 59 15 55 12.8 87 87 SW 9 15 29.86 1011 10 16 0.00 0.00
1:28 pm 13:28 Cloudy with Light Rain 59 15 55 12.8 87 87 NW 6 9 29.87 1011 10 16 0.00 0.00
1:53 pm 13:53 Cloudy 60 15.6 55 12.8 84 84 SW 7 11 29.86 1011 10 16 0.00 0.00
2:34 pm 14:34 Cloudy with Light Rain 60 15.6 56 13.3 86 86 W 8 13 29.88 1012 6 10 0.02 0.51
2:53 pm 14:53 Cloudy 61 16.1 57 13.9 87 87 W 9 15 29.88 1012 10 16 0.02 0.51
3:33 pm 15:33 Cloudy 62 16.7 58 14.4 86 86 WNW 12 19 29.88 1012 10 16 0.00 0.00
3:50 pm 15:50 Cloudy 61 16 57 14 88 88 NW 13 20 29.89 1012 10 16 0.00 0.00
3:53 pm 15:53 Cloudy with Light Rain 61 16.1 57 13.9 87 87 NW 20 31 29.90 1012 10 16 0.00 0.00
4:05 pm 16:05 Cloudy 60 15.6 55 12.8 84 84 N 10 17 29.90 1012 10 16 0.00 0.00
4:17 pm 16:17 Mostly Cloudy 62 16.7 55 12.8 78 78 N 10 17 29.90 1013 10 16 0.00 0.00
4:37 pm 16:37 Mostly Cloudy 62 16.7 54 12.2 75 75 N 12 19 29.91 1013 10 16 0.00 0.00
4:45 pm 16:45 Cloudy 62 16.7 53 11.7 73 73 N 13 20 29.91 1013 10 16 0.00 0.00
4:53 pm 16:53 Mostly Cloudy 62 16.7 54 12.2 75 75 N 8 13 29.92 1013 10 16 0.00 0.00
5:14 pm 17:14 Mostly Cloudy 61 16.1 52 11.1 72 72 N 9 15 29.94 1014 10 16 0.00 0.00
5:42 pm 17:42 Cloudy 60 15.6 51 10.6 72 72 NNW 14 22 29.97 1015 10 16 0.00 0.00
5:53 pm 17:53 Mostly Cloudy 60 15.6 50 10 70 70 N 8 13 29.96 1015 10 16 0.00 0.00
6:53 pm 18:53 Cloudy 60 15.6 48 8.9 65 65 N 10 17 29.99 1016 10 16 0.00 0.00
7:53 pm 19:53 Clear 57 13.9 47 8.3 69 69 NNW 7 11 30.05 1018 10 16 0.00 0.00
8:53 pm 20:53 Clear 55 12.8 47 8.3 74 74 N 5 7 30.08 1019 10 16 0.00 0.00
9:53 pm 21:53 Clear 53 11.7 46 7.8 77 77 NNW 3 6 30.11 1020 10 16 0.00 0.00
10:53 pm 22:53 Clear 54 12.2 44 6.7 69 69 NNE 9 15 30.13 1020 10 16 0.00 0.00
11:53 pm 23:53 Clear 52 11.1 42 5.6 69 69 N 8 13 30.15 1021 10 16 0.00 0.00

Powered by AerisWeather